This is the latest recevied weather packets stored in our database for station/object WV5G-13. If no packets are shown the sender has not sent any weather packets the latest 10 day(s).
| Time | Temp. | Humidity | Pressure | Rain* | Wind** | Luminosity | Snow |
|---|---|---|---|---|---|---|---|
| 1778033433 | 11.11° C | 55% | 1008.3 hPa | 0 mm | - | 0 W/m² | - |
| 1778033131 | 11.67° C | 54% | 1008.1 hPa | 0 mm | - | 0 W/m² | - |
| 1778032828 | 11.67° C | 54% | 1008.2 hPa | 0 mm | - | 0 W/m² | - |
| 1778032526 | 11.67° C | 53% | 1008 hPa | 0 mm | - | 0 W/m² | - |
| 1778032222 | 12.22° C | 52% | 1008.1 hPa | 0 mm | - | 0 W/m² | - |
| 1778031920 | 12.22° C | 52% | 1008.2 hPa | 0 mm | - | 1 W/m² | - |
| 1778031615 | 12.22° C | 52% | 1008.1 hPa | 0 mm | - | 2 W/m² | - |
| 1778031314 | 12.78° C | 51% | 1008 hPa | 0 mm | - | 4 W/m² | - |
| 1778031010 | 12.78° C | 51% | 1007.8 hPa | 0 mm | - | 7 W/m² | - |
| 1778030706 | 12.78° C | 50% | 1007.3 hPa | 0 mm | - | 14 W/m² | - |
| 1778030403 | 12.78° C | 50% | 1007.4 hPa | 0 mm | - | 14 W/m² | - |
| 1778030101 | 12.78° C | 50% | 1007.3 hPa | 0 mm | - | 19 W/m² | - |
| 1778029797 | 13.33° C | 50% | 1007.2 hPa | 0 mm | - | 25 W/m² | - |
| 1778029496 | 13.33° C | 50% | 1007.1 hPa | 0 mm | - | 31 W/m² | - |
| 1778029192 | 13.33° C | 49% | 1006.8 hPa | 0 mm | - | 36 W/m² | - |
| 1778028890 | 13.33° C | 49% | 1006.7 hPa | 0 mm | - | 47 W/m² | - |
| 1778028585 | 13.89° C | 48% | 1006.7 hPa | 0 mm | - | 53 W/m² | - |
| 1778028283 | 13.89° C | 48% | 1006.7 hPa | 0 mm | - | 65 W/m² | - |
| 1778027979 | 13.89° C | 48% | 1006.6 hPa | 0 mm | - | 70 W/m² | - |
| 1778027676 | 13.89° C | 47% | 1006.3 hPa | 0 mm | - | 79 W/m² | - |
| 1778027372 | 14.44° C | 47% | 1006.6 hPa | 0 mm | - | 89 W/m² | - |
| 1778027068 | 14.44° C | 46% | 1006.3 hPa | 0 mm | - | 103 W/m² | - |
| 1778026763 | 15° C | 46% | 1006.2 hPa | 0 mm | - | 113 W/m² | - |
| 1778026461 | 15° C | 45% | 1006.1 hPa | 0 mm | - | 114 W/m² | - |
| 1778026158 | 15° C | 45% | 1006.6 hPa | 0 mm | - | 157 W/m² | - |
* Rain latest hour (hover to see other rain measurements)
** Current wind speed in m/s (hover to see current wind gust speed)